KTQH

Details ICAO KTQH
Name TAHLEQUAH MUNI
Region United States
Timezone America/Chicago (UTC-5.0)
Plans Departing 0
Arriving 0
Stats Elevation 873 ft / 266 m (AMSL)
Location 35.928921° -95.004542°
Runways 1
Magnetic Variation 2.037° E
Sunrise 2018-05-20 11:12:12 UTC / 2018-05-20 06:12:12 Local
Sunset 2018-05-21 01:23:46 UTC / 2018-05-20 20:23:46 Local
Advertisement - Login to hide

Runways

ID Width Length Bearing (true) Bearing (mag) Surface Threshold Offset Overrun Length
17 75 ft / 23 m 4,014 ft / 1,224 m 182.23° 180.19° Asphalt 0 ft / 0 m 0 ft / 0 m
35 75 ft / 23 m 4,014 ft / 1,224 m 2.23° 0.19° Asphalt 0 ft / 0 m 0 ft / 0 m

Map

Weather


0- 5 10 15 20 25 30 35+ Temperature / ° C

Clouds and Precipitation
Forecast for 2018-05-20 18:00 UTC. Updated 2 hours ago

Ground ~20,000 ft ~40,000 ft Winds

METAR

KTQH 201935Z AUTO 18003KT 10SM CLR 26/18 A3002 RMK AO2

TAF

Not found

Frequencies

Recorded 118.42 MHz AWOS 3
Unicom 122.80 MHz CTAF/UNICOM
Warning: Do not use this data for real-world aviation or navigation. No guarantee of current accuracy is given.